Location: Twillingate Astronomical Observatory
(49.6173°N, 54.7580°W)
Time: 16:42:48
(UTC-02:-30)

Amateur Radio Satellites - All Passes

Search period start: 27 July 2016 16:12
Search period end: 28 July 2016 16:12
Location: Twillingate Astronomical Observatory, 49.6173°N, 54.7580°W

Satellite Date Start Highest point End Downlink Frequencies (MHz)
Time Altitude Azimuth
ITAMSAT 1 27 Jul 16:13:28 16:17:50 26° 267° (W) 16:22:12 435.822/435.867
CUTE-I 27 Jul 16:18:40 16:19:05 10° 47° (NE) 16:19:30 437.470
GONETS M04 27 Jul 16:19:32 16:28:15 89° 278° (W) 16:37:03
BEESAT 27 Jul 16:30:07 16:34:41 45° 292° (WNW) 16:39:12 436.000
SO-50 27 Jul 16:30:53 16:35:34 64° 46° (NE) 16:40:06 436.795
KKS-1 27 Jul 16:32:31 16:36:32 31° 96° (E) 16:40:32 437.445
NOAA 15 27 Jul 16:34:48 16:38:01 17° 54° (NE) 16:41:14 137.62
Cosmos 2499 27 Jul 16:49:31 16:58:27 80° 281° (WNW) 17:07:04 435.465 / 435.565
NOAA 18 27 Jul 16:52:51 16:56:45 20° 54° (NE) 17:00:39 137.9125
ITUPSAT 1 27 Jul 16:53:42 16:57:51 30° 297° (WNW) 17:01:59 437.325
LilacSat-2 27 Jul 16:56:51 16:57:47 11° 57° (ENE) 16:58:43 437.200
HORYU 2 27 Jul 16:58:25 17:02:54 74° 73° (ENE) 17:07:25 437.375
AO-85 27 Jul 17:00:19 17:04:24 23° 332° (NNW) 17:08:18 145.980
GOMX 1 27 Jul 17:00:37 17:01:53 11° 54° (NE) 17:03:11 467.674
MOZHAYETS 4 27 Jul 17:08:28 17:13:04 75° 104° (ESE) 17:17:38
STARS 27 Jul 17:10:26 17:14:36 38° 98° (E) 17:18:44 437.465
AO-7 27 Jul 17:25:24 17:32:12 27° 269° (W) 17:39:02 29.400- 29.500
Cubesat XI-IV 27 Jul 17:29:44 17:34:29 33° 62° (ENE) 17:39:14 437.490
BRITE-PL 27 Jul 17:34:47 17:38:41 41° 69° (ENE) 17:42:40 437.365/2234.400
SWISSCUBE 27 Jul 17:48:53 17:50:14 11° 309° (NW) 17:51:36 437.505
CUTE-I 27 Jul 17:52:47 17:57:55 48° 67° (ENE) 18:03:06 437.470
RS-15 27 Jul 18:05:23 18:15:39 33° 256° (WSW) 18:25:50 29.354- 29.394
KKS-1 27 Jul 18:09:04 18:13:08 34° 294° (WNW) 18:17:11 437.445
NOAA 15 27 Jul 18:11:49 18:17:04 86° 73° (ENE) 18:22:22 137.62
SO-50 27 Jul 18:12:05 18:15:38 22° 246° (WSW) 18:19:05 436.795
GONETS M04 27 Jul 18:19:36 18:26:26 25° 304° (WNW) 18:33:22
YUBILEINY 27 Jul 18:25:14 18:28:37 12° 41° (NE) 18:32:00 435.215
DOVE 4 27 Jul 18:26:37 18:30:30 32° 65° (ENE) 18:34:37 437.250
LilacSat-2 27 Jul 18:27:32 18:31:26 85° 74° (ENE) 18:35:21 437.200
CUBESAT XI-V 27 Jul 18:28:35 18:33:11 65° 102° (ESE) 18:37:46 437.345
NOAA 18 27 Jul 18:31:12 18:36:45 85° 254° (WSW) 18:42:21 137.9125
GOMX 1 27 Jul 18:34:58 18:39:09 77° 74° (ENE) 18:43:35 467.674
PHONESAT 2.4 27 Jul 18:35:09 18:36:38 13° 168° (SSE) 18:38:09 2401.200-2431.200
CINEMA 3 27 Jul 18:37:07 18:39:59 16° 57° (ENE) 18:42:57 145.822/145.860
HORYU 2 27 Jul 18:37:29 18:40:00 15° 271° (W) 18:42:31 437.375
HO-68 27 Jul 18:38:50 18:44:54 31° 54° (NE) 18:50:59 435.675
AO-85 27 Jul 18:44:14 18:46:35 13° 356° (N) 18:48:53 145.980
Cosmos 2499 27 Jul 18:46:22 18:53:00 23° 304° (NW) 18:59:29 435.465 / 435.565
MOZHAYETS 4 27 Jul 18:46:47 18:49:42 17° 302° (WNW) 18:52:36
STARS 27 Jul 18:47:01 18:50:51 28° 296° (WNW) 18:54:38 437.465
BEESAT 3 27 Jul 18:49:48 18:53:15 30° 119° (ESE) 18:56:45 437.485
BEESAT 2 27 Jul 18:57:12 19:00:11 21° 115° (ESE) 19:03:12 435.950
PCSat 27 Jul 19:03:45 19:07:51 22° 108° (ESE) 19:11:58 145.827
SEEDS 27 Jul 19:05:03 19:07:34 16° 59° (ENE) 19:10:05 437.485
Cubesat XI-IV 27 Jul 19:09:17 19:14:25 45° 261° (W) 19:19:36 437.490
BRITE-PL 27 Jul 19:14:15 19:17:26 21° 268° (W) 19:20:40 437.365/2234.400
COMPASS 1 27 Jul 19:16:23 19:18:41 15° 59° (ENE) 19:20:59 437.405
UWE-3 27 Jul 19:21:00 19:22:01 11° 53° (NE) 19:23:03 435.000/436.395/437.385
CUTE-I 27 Jul 19:33:33 19:38:12 29° 266° (W) 19:42:52 437.470
CUBEBUG 2 27 Jul 19:41:00 19:44:29 21° 60° (ENE) 19:48:01 437.445
AAUSAT CUBESAT 2 27 Jul 19:43:21 19:46:27 21° 62° (ENE) 19:49:33 437.432
CANX-2 27 Jul 19:46:50 19:51:00 55° 72° (ENE) 19:55:11 2200.000
Cosmos 2504 27 Jul 19:54:31 19:58:10 13° 43° (NE) 20:01:43 435.465 / 435.565
NOAA 15 27 Jul 19:54:31 19:57:34 15° 272° (W) 20:00:37 137.62
Cosmos 2491 27 Jul 19:58:43 20:01:57 13° 68° (ENE) 20:05:11 435.465 / 435.565
Oscar 11 27 Jul 19:59:49 20:02:19 15° 58° (ENE) 20:04:48 145.826/435.025
CUTE 1.7 + AOD 2 27 Jul 20:00:06 20:04:21 65° 73° (ENE) 20:08:35 437.475
DOVE 4 27 Jul 20:04:20 20:08:13 32° 266° (W) 20:12:21 437.250
STRAND 1 27 Jul 20:06:46 20:11:38 41° 98° (E) 20:16:26 437.568
CUBESAT XI-V 27 Jul 20:06:54 20:10:07 19° 300° (WNW) 20:13:21 437.345
PHONESAT 2.4 27 Jul 20:10:34 20:12:26 15° 185° (S) 20:14:18 2401.200-2431.200
CINEMA 3 27 Jul 20:11:54 20:16:28 82° 257° (WSW) 20:21:18 145.822/145.860
NOAA 18 27 Jul 20:15:16 20:18:15 15° 273° (W) 20:21:17 137.9125
GOMX 1 27 Jul 20:16:07 20:17:58 12° 274° (W) 20:19:50 467.674
YUBILEINY 27 Jul 20:20:00 20:28:26 45° 68° (ENE) 20:36:46 435.215
HO-68 27 Jul 20:24:55 20:32:06 72° 255° (WSW) 20:39:20 435.675
AO-85 27 Jul 20:25:42 20:28:56 18° 21° (NNE) 20:31:59 145.980
BEESAT 3 27 Jul 20:27:09 20:30:52 38° 318° (NW) 20:34:36 437.485
O/OREOS (USA 219) 27 Jul 20:28:07 20:31:37 23° 103° (ESE) 20:35:09 437.305
BEESAT 2 27 Jul 20:33:49 20:37:43 54° 314° (NW) 20:41:39 435.950
SEEDS 27 Jul 20:38:33 20:42:47 71° 259° (W) 20:47:01 437.485
PCSat 27 Jul 20:45:19 20:50:44 72° 308° (NW) 20:56:12 145.827
COMPASS 1 27 Jul 20:49:32 20:53:43 76° 259° (WSW) 20:57:54 437.405
FUNcube-1 27 Jul 20:51:43 20:55:57 40° 68° (ENE) 21:00:15 145.935
ZACube-1 27 Jul 20:52:49 20:57:08 43° 69° (ENE) 21:01:30 437.345
UWE-3 27 Jul 20:53:00 20:57:32 62° 72° (ENE) 21:02:11 435.000/436.395/437.385
AIST 2 27 Jul 21:01:18 21:04:26 21° 115° (ESE) 21:07:36 435.215
M-CUBED/EXP-1 PRIME 27 Jul 21:07:35 21:11:11 35° 60° (ENE) 21:15:02 437.505
PRISM 27 Jul 21:12:25 21:15:50 25° 95° (E) 21:19:13 437.425
CUBEBUG 2 27 Jul 21:16:07 21:20:41 60° 260° (W) 21:25:23 437.445
AAUSAT CUBESAT 2 27 Jul 21:17:38 21:21:39 48° 261° (W) 21:25:42 437.432
CANX-2 27 Jul 21:24:16 21:27:12 18° 270° (W) 21:30:09 2200.000
AUBIESAT-1 27 Jul 21:32:59 21:36:49 51° 64° (ENE) 21:40:57 437.475
Oscar 11 27 Jul 21:33:32 21:37:53 78° 257° (WSW) 21:42:16 145.826/435.025
DELFI C3 27 Jul 21:36:18 21:40:10 52° 72° (ENE) 21:44:03 145.870
CUTE 1.7 + AOD 2 27 Jul 21:38:08 21:40:38 15° 271° (W) 21:43:08 437.475
Cosmos 2504 27 Jul 21:46:07 21:54:10 49° 70° (ENE) 22:01:36 435.465 / 435.565
STRAND 1 27 Jul 21:46:11 21:50:43 32° 297° (WNW) 21:55:12 437.568
Cosmos 2491 27 Jul 21:48:19 21:56:44 57° 91° (E) 22:05:12 435.465 / 435.565
CINEMA 3 27 Jul 21:53:08 21:54:29 11° 277° (W) 21:55:50 145.822/145.860
HUMSAT D 27 Jul 22:03:12 22:07:23 52° 71° (ENE) 22:11:35 437.325/437.525
AO-85 27 Jul 22:05:53 22:10:26 56° 45° (NE) 22:14:34 145.980
O/OREOS (USA 219) 27 Jul 22:06:25 22:10:45 48° 303° (WNW) 22:15:06 437.305
BEESAT 3 27 Jul 22:07:51 22:09:36 12° 341° (NNW) 22:11:21 437.485
ISS 27 Jul 22:12:04 22:15:00 32° 147° (SSE) 22:17:58 145.825
TIGRISAT 27 Jul 22:12:32 22:14:18 12° 85° (E) 22:16:03 435.000
BEESAT 2 27 Jul 22:14:05 22:16:25 15° 336° (NNW) 22:18:45 435.950
AISAT 27 Jul 22:14:35 22:16:00 11° 54° (NE) 22:17:27 437.250
YUBILEINY 27 Jul 22:16:59 22:25:26 52° 271° (W) 22:33:49 435.215
HO-68 27 Jul 22:17:11 22:21:08 15° 276° (W) 22:25:05 435.675
UNISAT 6 27 Jul 22:27:58 22:31:09 18° 89° (E) 22:34:16 437.425
FUNcube-1 27 Jul 22:28:25 22:32:19 27° 267° (W) 22:36:15 145.935
ZACube-1 27 Jul 22:29:47 22:33:36 25° 268° (W) 22:37:26 437.345
PCSat 27 Jul 22:30:59 22:35:06 21° 331° (NNW) 22:39:14 145.827
UWE-3 27 Jul 22:31:14 22:34:26 18° 271° (W) 22:37:40 435.000/436.395/437.385
AIST 2 27 Jul 22:38:33 22:42:36 56° 314° (NW) 22:46:42 435.215
M-CUBED/EXP-1 PRIME 27 Jul 22:42:29 22:45:47 27° 261° (W) 22:49:21 437.505
PRISM 27 Jul 22:47:28 22:51:14 36° 293° (WNW) 22:54:59 437.425
ESTCUBE 1 27 Jul 22:48:38 22:52:37 32° 66° (ENE) 22:56:37 437.505/2401.250
50 SAT 27 Jul 22:51:26 22:54:00 18° 63° (ENE) 22:56:34 437.505
SPROUT 27 Jul 22:56:45 22:58:44 13° 56° (NE) 23:00:42 437.525
CUBEBUG 1 27 Jul 23:02:55 23:06:40 30° 65° (ENE) 23:10:28 437.445
VELOX 1 27 Jul 23:03:13 23:06:57 28° 64° (ENE) 23:10:42 145.980
ANTELSAT 27 Jul 23:05:39 23:10:01 38° 97° (E) 23:14:17 437.575/2403.000
AUBIESAT-1 27 Jul 23:08:51 23:11:39 18° 265° (W) 23:14:35 437.475
DELFI C3 27 Jul 23:12:46 23:15:20 16° 270° (W) 23:17:55 145.870
NANOSAT C BR1 27 Jul 23:32:16 23:33:59 12° 87° (E) 23:35:41 145.865
DUCHIFAT 1 27 Jul 23:36:10 23:38:00 12° 87° (E) 23:39:48 145.980
Cosmos 2504 27 Jul 23:39:52 23:47:27 42° 274° (W) 23:54:32 435.465 / 435.565
HUMSAT D 27 Jul 23:40:12 23:43:18 19° 269° (W) 23:46:25 437.325/437.525
DX 1 27 Jul 23:45:09 23:49:20 51° 70° (ENE) 23:53:34 434.975-435.025
Cosmos 2491 27 Jul 23:45:57 23:53:59 40° 294° (WNW) 00:02:04 435.465 / 435.565
TIGRISAT 27 Jul 23:47:01 23:51:44 88° 107° (ESE) 23:56:18 435.000
AO-85 27 Jul 23:47:03 23:50:29 22° 246° (WSW) 23:53:42 145.980
AISAT 27 Jul 23:47:19 23:51:42 74° 73° (ENE) 23:56:07 437.250
ISS 27 Jul 23:48:01 23:51:17 76° 347° (NNW) 23:54:33 145.825
O/OREOS (USA 219) 27 Jul 23:50:24 23:51:19 11° 325° (NW) 23:52:15 437.305
TISAT 1 27 Jul 23:50:25 23:52:04 12° 55° (NE) 23:53:43 437.305
QB50P1 27 Jul 23:53:48 23:57:05 21° 92° (E) 00:00:20 145.935-145.965
UKube-1 27 Jul 23:57:40 00:01:52 55° 70° (ENE) 00:06:06 .
POPSAT HIP 1 28 Jul 00:00:10 00:03:39 23° 93° (E) 00:07:07 437.405
UNISAT 6 28 Jul 00:03:41 00:08:18 63° 288° (WNW) 00:12:50 437.425
AIST 1 28 Jul 00:12:10 00:16:13 37° 73° (ENE) 00:20:15
YUBILEINY 28 Jul 00:17:57 00:19:56 11° 295° (WNW) 00:21:56 435.215
PCSat 28 Jul 00:18:25 00:20:39 12° 357° (N) 00:22:53 145.827
AIST 2 28 Jul 00:19:23 00:21:58 16° 336° (NNW) 00:24:33 435.215
QB50P2 28 Jul 00:20:54 00:24:58 39° 98° (E) 00:28:59 145.880/145.840
POLYITAN 1 28 Jul 00:23:32 00:27:37 40° 98° (E) 00:31:39 437.675
50 SAT 28 Jul 00:23:52 00:27:22 42° 261° (W) 00:30:53 437.505
ESTCUBE 1 28 Jul 00:25:21 00:29:25 33° 264° (W) 00:33:29 437.505/2401.250
GONETS M04 28 Jul 00:28:41 00:33:54 17° 47° (NE) 00:39:08
SPROUT 28 Jul 00:29:43 00:34:01 89° 62° (ENE) 00:38:21 437.525
CUBEBUG 1 28 Jul 00:39:00 00:42:54 33° 264° (W) 00:46:52 437.445
VELOX 1 28 Jul 00:39:13 00:43:18 37° 262° (W) 00:47:26 145.980
ANTELSAT 28 Jul 00:42:34 00:46:37 30° 296° (WNW) 00:50:35 437.575/2403.000
Cosmos 2499 28 Jul 00:45:11 00:48:35 13° 44° (NE) 00:51:54 435.465 / 435.565
ITUPSAT 1 28 Jul 00:51:50 00:54:05 13° 53° (NE) 00:56:20 437.325
NANOSAT C BR1 28 Jul 01:06:00 01:10:18 82° 286° (WNW) 01:14:35 145.865
Oscar 19 28 Jul 01:08:07 01:09:27 11° 84° (E) 01:10:46 437.125/150
DUCHIFAT 1 28 Jul 01:09:58 01:14:16 80° 286° (WNW) 01:18:31 145.980
JAS-2 28 Jul 01:19:37 01:24:40 45° 99° (E) 01:30:04 435.910
BUGSAT 1 28 Jul 01:21:46 01:26:01 65° 102° (ESE) 01:30:15 437.445
DX 1 28 Jul 01:22:41 01:25:50 20° 268° (W) 01:29:01 434.975-435.025
TISAT 1 28 Jul 01:22:49 01:27:02 84° 71° (ENE) 01:31:17 437.305
ISS 28 Jul 01:24:40 01:27:54 60° 5° (N) 01:31:09 145.825
TIGRISAT 28 Jul 01:25:06 01:27:44 15° 304° (NW) 01:30:21 435.000
BEESAT 3 28 Jul 01:25:31 01:28:17 18° 28° (NNE) 01:31:03 437.485
AISAT 28 Jul 01:26:23 01:28:44 14° 272° (W) 01:31:05 437.250
QB50P1 28 Jul 01:28:58 01:33:06 47° 290° (WNW) 01:37:13 145.935-145.965
BEESAT 2 28 Jul 01:33:04 01:35:28 15° 24° (NNE) 01:37:51 435.950
UKube-1 28 Jul 01:35:17 01:38:15 18° 269° (W) 01:41:16 .
POPSAT HIP 1 28 Jul 01:35:33 01:39:37 41° 291° (WNW) 01:43:39 437.405
SWISSCUBE 28 Jul 01:42:00 01:46:20 35° 65° (ENE) 01:50:41 437.505
UNISAT 6 28 Jul 01:43:02 01:44:05 11° 308° (NW) 01:45:09 437.425
AIST 1 28 Jul 01:50:05 01:53:39 25° 272° (W) 01:57:12
Cosmos 2491 28 Jul 01:52:15 01:54:05 11° 322° (NW) 01:55:55 435.465 / 435.565
QB50P2 28 Jul 01:57:02 02:00:37 26° 296° (WNW) 02:04:09 145.880/145.840
POLYITAN 1 28 Jul 01:59:42 02:03:15 25° 296° (WNW) 02:06:47 437.675
PCSat 28 Jul 02:02:46 02:06:22 18° 23° (NNE) 02:09:59 145.827
BEESAT 28 Jul 02:02:58 02:07:33 48° 68° (ENE) 02:12:11 436.000
SPROUT 28 Jul 02:09:23 02:10:37 11° 274° (W) 02:11:52 437.525
GONETS M04 28 Jul 02:24:19 02:33:02 60° 74° (ENE) 02:41:44
ITUPSAT 1 28 Jul 02:26:20 02:31:08 76° 73° (ENE) 02:35:57 437.325
Gurwin Techsat 1B 28 Jul 02:31:22 02:35:56 28° 93° (E) 02:40:29 435.225
Cosmos 2499 28 Jul 02:36:26 02:44:12 50° 71° (ENE) 02:51:22 435.465 / 435.565
MOZHAYETS 4 28 Jul 02:39:12 02:42:15 18° 59° (ENE) 02:45:19
ITAMSAT 1 28 Jul 02:43:17 02:45:28 12° 86° (E) 02:47:36 435.822/435.867
NANOSAT C BR1 28 Jul 02:43:40 02:45:20 12° 304° (NW) 02:47:00 145.865
Oscar 19 28 Jul 02:44:31 02:49:42 72° 103° (ESE) 02:54:53 437.125/150
DUCHIFAT 1 28 Jul 02:47:42 02:49:14 12° 305° (NW) 02:50:46 145.980
BUGSAT 1 28 Jul 02:58:11 03:00:57 17° 300° (WNW) 03:03:43 437.445
ISS 28 Jul 03:01:09 03:04:23 57° 205° (SSW) 03:07:35 145.825
TISAT 1 28 Jul 03:01:50 03:03:18 12° 273° (W) 03:04:45 437.305
BEESAT 3 28 Jul 03:02:37 03:06:36 79° 49° (NE) 03:10:34 437.485
JAS-2 28 Jul 03:05:10 03:09:42 31° 297° (WNW) 03:14:28 435.910
BEESAT 2 28 Jul 03:10:10 03:14:08 55° 46° (NE) 03:18:05 435.950
SWISSCUBE 28 Jul 03:19:47 03:24:08 34° 264° (W) 03:28:30 437.505
AO-7 28 Jul 03:28:01 03:33:49 20° 87° (E) 03:39:33 29.400- 29.500
KKS-1 28 Jul 03:34:28 03:38:44 48° 69° (ENE) 03:43:04 437.445
AIST 2 28 Jul 03:39:41 03:42:22 16° 25° (NNE) 03:45:02 435.215
BEESAT 28 Jul 03:41:41 03:45:35 24° 267° (W) 03:49:31 436.000
PCSat 28 Jul 03:45:45 03:51:04 51° 47° (NE) 03:56:20 145.827
CUBESAT XI-V 28 Jul 04:00:59 04:03:44 16° 57° (ENE) 04:06:29 437.345
CUSAT 1 28 Jul 04:03:46 04:07:25 48° 100° (E) 04:10:23 437.405
ITUPSAT 1 28 Jul 04:06:38 04:09:32 16° 271° (W) 04:12:26 437.325
STARS 28 Jul 04:10:56 04:15:14 58° 71° (ENE) 04:19:36 437.465
Gurwin Techsat 1B 28 Jul 04:11:01 04:16:08 49° 292° (WNW) 04:21:14 435.225
MOZHAYETS 4 28 Jul 04:14:18 04:18:55 72° 257° (WSW) 04:23:33
ITAMSAT 1 28 Jul 04:20:33 04:25:47 80° 105° (ESE) 04:30:58 435.822/435.867
GONETS M04 28 Jul 04:21:40 04:29:29 38° 276° (W) 04:37:21
Oscar 19 28 Jul 04:24:46 04:28:32 21° 302° (WNW) 04:32:18 437.125/150
Cosmos 2499 28 Jul 04:29:57 04:37:08 39° 275° (W) 04:43:50 435.465 / 435.565
DANDE 28 Jul 04:32:46 04:37:39 43° 99° (E) 04:41:24 436.750
ISS 28 Jul 04:38:48 04:40:16 12° 223° (SW) 04:41:43 145.825
BEESAT 3 28 Jul 04:41:39 04:43:44 14° 248° (WSW) 04:45:49 437.485
HORYU 2 28 Jul 04:48:06 04:48:35 10° 86° (E) 04:49:04 437.375
BEESAT 2 28 Jul 04:48:39 04:51:39 20° 245° (WSW) 04:54:38 435.950
O/OREOS (USA 219) 28 Jul 04:54:03 04:57:06 17° 44° (NE) 05:00:09 437.305
KKS-1 28 Jul 05:12:08 05:15:34 22° 268° (W) 05:19:02 437.445
AIST 2 28 Jul 05:17:33 05:21:41 59° 47° (NE) 05:25:49 435.215
AO-7 28 Jul 05:19:29 05:27:55 81° 109° (ESE) 05:36:15 29.400- 29.500
PCSat 28 Jul 05:29:28 05:34:18 33° 247° (WSW) 05:39:06 145.827
CUBESAT XI-V 28 Jul 05:35:55 05:40:32 81° 256° (WSW) 05:45:10 437.345
BRITE-PL 28 Jul 05:36:00 05:37:26 11° 86° (E) 05:38:52 437.365/2234.400
CUSAT 1 28 Jul 05:48:49 05:49:31 10° 292° (WNW) 05:50:12 437.405
STARS 28 Jul 05:48:57 05:51:59 18° 269° (W) 05:55:02 437.465
STRAND 1 28 Jul 05:50:15 05:53:29 17° 55° (NE) 05:56:42 437.568
Gurwin Techsat 1B 28 Jul 05:54:50 05:54:53 10° 313° (NW) 05:54:57 435.225
ITAMSAT 1 28 Jul 06:01:04 06:04:40 19° 304° (NW) 06:08:14 435.822/435.867
CUTE-I 28 Jul 06:07:02 06:09:29 13° 85° (E) 06:11:57 437.470
DANDE 28 Jul 06:16:46 06:20:26 21° 289° (WNW) 06:23:28 436.750
HORYU 2 28 Jul 06:21:23 06:25:54 80° 103° (ESE) 06:30:22 437.375
RS-15 28 Jul 06:21:42 06:31:40 36° 106° (ESE) 06:42:02 29.354- 29.394
NOAA 15 28 Jul 06:23:03 06:27:12 23° 92° (E) 06:31:20 137.62
GOMX 1 28 Jul 06:32:04 06:35:41 19° 90° (E) 06:39:26 467.674
O/OREOS (USA 219) 28 Jul 06:32:35 06:37:09 86° 245° (WSW) 06:41:42 437.305
NOAA 18 28 Jul 06:49:11 06:53:59 29° 94° (E) 06:58:44 137.9125
AIST 2 28 Jul 06:56:42 06:59:50 21° 245° (WSW) 07:02:56 435.215
BRITE-PL 28 Jul 07:11:49 07:16:35 77° 103° (ESE) 07:21:45 437.365/2234.400
AO-7 28 Jul 07:12:54 07:19:58 32° 311° (NW) 07:27:00 29.400- 29.500
CUBESAT XI-V 28 Jul 07:17:37 07:18:41 11° 275° (W) 07:19:45 437.345
Cubesat XI-IV 28 Jul 07:21:41 07:26:57 53° 100° (E) 07:32:10 437.490
STRAND 1 28 Jul 07:26:49 07:31:59 90° 279° (W) 07:37:11 437.568
LilacSat-2 28 Jul 07:30:51 07:34:45 71° 102° (ESE) 07:38:35 437.200
CUTE-I 28 Jul 07:45:01 07:50:25 81° 104° (ESE) 07:55:45 437.470
HO-68 28 Jul 07:49:00 07:53:47 18° 86° (E) 07:58:31 435.675
Cosmos 2491 28 Jul 07:52:58 08:00:56 37° 65° (ENE) 08:08:53 435.465 / 435.565
DOVE 4 28 Jul 07:57:18 08:02:19 52° 99° (E) 08:07:28 437.250
HORYU 2 28 Jul 07:59:14 08:01:53 16° 303° (WNW) 08:04:32 437.375
NOAA 15 28 Jul 08:02:11 08:07:22 59° 291° (WNW) 08:12:33 137.62
CINEMA 3 28 Jul 08:02:43 08:06:30 21° 90° (E) 08:10:15 145.822/145.860
PRISM 28 Jul 08:05:49 08:09:28 32° 66° (ENE) 08:13:07 437.425
GOMX 1 28 Jul 08:09:12 08:14:10 69° 287° (WNW) 08:19:26 467.674
O/OREOS (USA 219) 28 Jul 08:14:20 08:15:48 11° 263° (W) 08:17:15 437.305
SEEDS 28 Jul 08:19:22 08:21:40 14° 88° (E) 08:23:59 437.485
SO-50 28 Jul 08:28:52 08:33:29 44° 121° (ESE) 08:38:05 436.795
NOAA 18 28 Jul 08:29:31 08:34:54 51° 294° (WNW) 08:40:13 137.9125
COMPASS 1 28 Jul 08:29:34 08:31:31 13° 88° (E) 08:33:27 437.405
RS-15 28 Jul 08:31:19 08:42:59 82° 312° (NW) 08:55:19 29.354- 29.394
BRITE-PL 28 Jul 08:51:29 08:54:39 18° 300° (WNW) 08:57:56 437.365/2234.400
AAUSAT CUBESAT 2 28 Jul 08:56:03 08:59:03 19° 91° (E) 09:02:03 437.432
Cubesat XI-IV 28 Jul 09:02:15 09:06:46 28° 300° (WNW) 09:11:14 437.490
CUBEBUG 2 28 Jul 09:03:07 09:06:57 24° 91° (E) 09:10:41 437.445
CANX-2 28 Jul 09:03:09 09:07:20 60° 100° (E) 09:11:30 2200.000
LilacSat-2 28 Jul 09:06:36 09:08:32 13° 301° (WNW) 09:10:28 437.200
AO-7 28 Jul 09:07:35 09:10:09 12° 336° (NNW) 09:12:44 29.400- 29.500
STRAND 1 28 Jul 09:09:11 09:11:53 14° 273° (W) 09:14:37 437.568
TIGRISAT 28 Jul 09:14:30 09:17:50 20° 59° (ENE) 09:21:11 435.000
CUTE 1.7 + AOD 2 28 Jul 09:16:21 09:20:35 72° 102° (ESE) 09:24:47 437.475
Oscar 11 28 Jul 09:17:41 09:20:06 15° 88° (E) 09:22:31 145.826/435.025
CUTE-I 28 Jul 09:26:07 09:29:51 20° 304° (NW) 09:33:34 437.470
YUBILEINY 28 Jul 09:26:41 09:34:45 43° 86° (E) 09:42:52 435.215
UNISAT 6 28 Jul 09:30:29 09:34:25 27° 63° (ENE) 09:38:22 437.425
HO-68 28 Jul 09:35:20 09:42:36 83° 107° (ESE) 09:49:48 435.675
DOVE 4 28 Jul 09:35:29 09:39:45 27° 297° (WNW) 09:44:08 437.250
CINEMA 3 28 Jul 09:39:03 09:44:01 62° 288° (WNW) 09:48:57 145.822/145.860
PRISM 28 Jul 09:41:18 09:44:48 27° 265° (W) 09:48:20 437.425
NOAA 15 28 Jul 09:44:14 09:46:08 12° 311° (NW) 09:48:02 137.62
GOMX 1 28 Jul 09:49:18 09:51:29 13° 305° (NW) 09:53:43 467.674
Cosmos 2491 28 Jul 09:49:44 09:58:19 63° 268° (W) 10:06:55 435.465 / 435.565
SEEDS 28 Jul 09:53:41 09:57:51 65° 287° (WNW) 10:01:58 437.485
COMPASS 1 28 Jul 10:03:27 10:07:35 72° 286° (WNW) 10:11:42 437.405
ANTELSAT 28 Jul 10:08:07 10:12:40 56° 70° (ENE) 10:17:18 437.575/2403.000
SO-50 28 Jul 10:09:29 10:14:04 39° 321° (NW) 10:18:36 436.795
FUNcube-1 28 Jul 10:11:23 10:15:43 44° 98° (E) 10:19:55 145.935
NOAA 18 28 Jul 10:12:46 10:14:21 11° 314° (NW) 10:15:57 137.9125
ZACube-1 28 Jul 10:12:53 10:17:19 49° 99° (E) 10:21:35 437.345
UWE-3 28 Jul 10:14:40 10:19:20 75° 103° (ESE) 10:23:52 435.000/436.395/437.385
M-CUBED/EXP-1 PRIME 28 Jul 10:17:18 10:20:16 16° 95° (E) 10:23:12 437.505
NANOSAT C BR1 28 Jul 10:28:10 10:30:57 17° 59° (ENE) 10:33:44 145.865
Cosmos 2504 28 Jul 10:28:55 10:36:50 38° 84° (E) 10:44:38 435.465 / 435.565
AAUSAT CUBESAT 2 28 Jul 10:30:50 10:34:48 46° 290° (WNW) 10:38:44 437.432
DUCHIFAT 1 28 Jul 10:31:51 10:34:40 18° 60° (ENE) 10:37:30 145.980
CUBEBUG 2 28 Jul 10:39:14 10:43:49 48° 290° (WNW) 10:48:16 437.445
CANX-2 28 Jul 10:39:58 10:42:47 18° 300° (WNW) 10:45:36 2200.000
AUBIESAT-1 28 Jul 10:41:57 10:45:37 23° 98° (E) 10:49:16 437.475
BUGSAT 1 28 Jul 10:43:35 10:44:50 11° 55° (NE) 10:46:04 437.445
DELFI C3 28 Jul 10:44:13 10:48:03 46° 99° (E) 10:51:51 145.870
RS-15 28 Jul 10:46:12 10:57:25 44° 342° (NNW) 11:09:05 29.354- 29.394
TIGRISAT 28 Jul 10:49:26 10:54:03 66° 258° (WSW) 10:58:47 435.000
QB50P1 28 Jul 10:50:13 10:53:50 27° 64° (ENE) 10:57:28 145.935-145.965
Oscar 11 28 Jul 10:52:24 10:56:44 69° 286° (WNW) 11:01:00 145.826/435.025
CUTE 1.7 + AOD 2 28 Jul 10:53:28 10:55:55 15° 301° (WNW) 10:58:22 437.475
POPSAT HIP 1 28 Jul 10:56:36 11:00:21 31° 66° (ENE) 11:04:09 437.405
UNISAT 6 28 Jul 11:06:29 11:10:55 44° 262° (W) 11:15:27 437.425
QB50P2 28 Jul 11:17:22 11:21:30 51° 70° (ENE) 11:25:41 145.880/145.840
HUMSAT D 28 Jul 11:17:46 11:21:55 53° 100° (E) 11:25:58 437.325/437.525
CINEMA 3 28 Jul 11:18:28 11:20:11 12° 308° (NW) 11:21:54 145.822/145.860
POLYITAN 1 28 Jul 11:19:59 11:24:08 52° 71° (ENE) 11:28:21 437.675
YUBILEINY 28 Jul 11:22:50 11:31:24 53° 288° (WNW) 11:40:03 435.215
HO-68 28 Jul 11:23:50 11:29:36 27° 308° (NW) 11:35:21 435.675
AISAT 28 Jul 11:35:57 11:36:37 10° 86° (E) 11:37:18 437.250
JAS-2 28 Jul 11:37:00 11:42:06 33° 64° (ENE) 11:46:50 435.910
ANTELSAT 28 Jul 11:46:15 11:49:44 21° 270° (W) 11:53:15 437.575/2403.000
FUNcube-1 28 Jul 11:48:04 11:51:43 25° 297° (WNW) 11:55:19 145.935
Cosmos 2491 28 Jul 11:49:11 11:53:17 14° 291° (WNW) 11:57:23 435.465 / 435.565
ZACube-1 28 Jul 11:49:44 11:53:17 23° 298° (WNW) 11:56:47 437.345
50 SAT 28 Jul 11:49:53 11:51:04 11° 89° (E) 11:52:16 437.505
M-CUBED/EXP-1 PRIME 28 Jul 11:50:33 11:55:14 77° 293° (WNW) 11:59:57 437.505
UWE-3 28 Jul 11:52:15 11:55:14 17° 302° (WNW) 11:58:09 435.000/436.395/437.385
SO-50 28 Jul 11:52:50 11:55:49 16° 344° (NNW) 11:58:46 436.795
NANOSAT C BR1 28 Jul 12:02:01 12:06:13 64° 258° (WSW) 12:10:29 145.865
DUCHIFAT 1 28 Jul 12:05:44 12:09:55 62° 258° (WSW) 12:14:11 145.980
ESTCUBE 1 28 Jul 12:12:54 12:17:05 37° 97° (E) 12:21:14 437.505/2401.250
SPROUT 28 Jul 12:13:18 12:14:53 12° 87° (E) 12:16:27 437.525
BUGSAT 1 28 Jul 12:15:22 12:19:28 79° 73° (ENE) 12:23:40 437.445
AUBIESAT-1 28 Jul 12:15:47 12:20:19 55° 295° (WNW) 12:24:51 437.475
DELFI C3 28 Jul 12:19:47 12:22:37 19° 297° (WNW) 12:25:27 145.870
Gurwin Techsat 1B 28 Jul 12:20:21 12:22:49 13° 51° (NE) 12:25:18 435.225
Cosmos 2504 28 Jul 12:21:03 12:29:51 62° 286° (WNW) 12:38:32 435.465 / 435.565
CUBEBUG 1 28 Jul 12:22:43 12:26:41 32° 96° (E) 12:30:39 437.445
VELOX 1 28 Jul 12:24:41 12:28:35 29° 95° (E) 12:32:28 145.980
QB50P1 28 Jul 12:25:34 12:29:30 36° 263° (W) 12:33:29 145.935-145.965
Oscar 19 28 Jul 12:27:44 12:31:56 27° 61° (ENE) 12:36:11 437.125/150
Oscar 11 28 Jul 12:31:23 12:32:02 10° 306° (NW) 12:32:42 145.826/435.025
POPSAT HIP 1 28 Jul 12:32:18 12:36:07 32° 264° (W) 12:39:59 437.405
AO-7 28 Jul 12:43:58 12:48:16 15° 32° (NNE) 12:52:35 29.400- 29.500
AIST 1 28 Jul 12:47:16 12:50:03 17° 85° (E) 12:52:51
HUMSAT D 28 Jul 12:54:10 12:57:11 19° 299° (WNW) 13:00:10 437.325/437.525
QB50P2 28 Jul 12:54:33 12:57:37 19° 269° (W) 13:00:43 145.880/145.840
POLYITAN 1 28 Jul 12:57:13 13:00:16 19° 269° (W) 13:03:20 437.675
RS-15 28 Jul 13:02:08 13:13:34 43° 16° (NNE) 13:25:10 29.354- 29.394
DX 1 28 Jul 13:04:49 13:09:07 52° 101° (E) 13:13:24 434.975-435.025
AISAT 28 Jul 13:09:21 13:13:50 81° 105° (ESE) 13:18:18 437.250
UKube-1 28 Jul 13:16:11 13:20:28 54° 101° (E) 13:24:42 .
50 SAT 28 Jul 13:21:33 13:25:09 64° 287° (WNW) 13:28:42 437.505
JAS-2 28 Jul 13:21:36 13:27:10 43° 261° (W) 13:32:17 435.910
YUBILEINY 28 Jul 13:26:09 13:30:47 15° 315° (NW) 13:35:26 435.215
M-CUBED/EXP-1 PRIME 28 Jul 13:26:28 13:29:03 15° 310° (NW) 13:31:39 437.505
SO-50 28 Jul 13:35:38 13:38:11 14° 9° (N) 13:40:43 436.795
GONETS M04 28 Jul 13:41:03 13:44:18 13° 68° (ENE) 13:47:35
SPROUT 28 Jul 13:47:05 13:51:27 86° 283° (WNW) 13:55:46 437.525
ESTCUBE 1 28 Jul 13:49:56 13:53:47 29° 296° (WNW) 13:57:39 437.505/2401.250
AUBIESAT-1 28 Jul 13:52:35 13:53:51 11° 314° (NW) 13:55:07 437.475
BUGSAT 1 28 Jul 13:53:51 13:55:26 12° 273° (W) 13:57:02 437.445
Gurwin Techsat 1B 28 Jul 13:56:34 14:01:49 67° 71° (ENE) 14:07:07 435.225
CUBEBUG 1 28 Jul 13:59:02 14:02:57 32° 294° (WNW) 14:06:52 437.445
VELOX 1 28 Jul 14:01:02 14:05:07 36° 293° (WNW) 14:09:10 145.980
AO-85 28 Jul 14:03:22 14:08:24 43° 121° (ESE) 14:13:12 145.980
ITAMSAT 1 28 Jul 14:04:22 14:08:56 31° 62° (ENE) 14:13:31 435.822/435.867
Oscar 19 28 Jul 14:06:00 14:11:00 52° 260° (W) 14:16:02 437.125/150
Cosmos 2504 28 Jul 14:19:44 14:25:18 18° 310° (NW) 14:30:49 435.465 / 435.565
AIST 1 28 Jul 14:23:05 14:27:14 52° 284° (WNW) 14:31:26
ITUPSAT 1 28 Jul 14:23:56 14:26:26 14° 88° (E) 14:28:55 437.325
CUSAT 1 28 Jul 14:30:40 14:33:25 40° 75° (ENE) 14:36:43 437.405
AO-7 28 Jul 14:31:14 14:38:58 44° 56° (NE) 14:46:45 29.400- 29.500
TISAT 1 28 Jul 14:37:51 14:42:09 82° 104° (ESE) 14:46:24 437.305
DX 1 28 Jul 14:41:42 14:45:00 21° 299° (WNW) 14:48:19 434.975-435.025
AISAT 28 Jul 14:47:09 14:49:44 15° 303° (WNW) 14:52:19 437.250
UKube-1 28 Jul 14:52:59 14:56:10 20° 300° (WNW) 14:59:21 .
DANDE 28 Jul 15:06:12 15:08:30 26° 73° (ENE) 15:10:53 436.750
SWISSCUBE 28 Jul 15:14:56 15:19:30 44° 99° (E) 15:24:02 437.505
RS-15 28 Jul 15:15:55 15:28:19 77° 46° (NE) 15:40:39 29.354- 29.394
SO-50 28 Jul 15:16:03 15:20:11 29° 33° (NNE) 15:24:12 436.795
Cosmos 2499 28 Jul 15:17:17 15:25:12 38° 85° (E) 15:32:51 435.465 / 435.565
SPROUT 28 Jul 15:24:50 15:26:42 13° 304° (NW) 15:28:36 437.525
GONETS M04 28 Jul 15:30:40 15:39:04 58° 90° (E) 15:47:33
BEESAT 28 Jul 15:36:04 15:40:50 62° 102° (ESE) 15:45:32 436.000
Gurwin Techsat 1B 28 Jul 15:38:20 15:42:17 21° 270° (W) 15:46:14 435.225
ITAMSAT 1 28 Jul 15:43:17 15:48:17 45° 261° (W) 15:53:18 435.822/435.867
AO-85 28 Jul 15:43:56 15:48:57 43° 319° (NW) 15:53:42 145.980
HORYU 2 28 Jul 15:48:38 15:51:44 19° 59° (ENE) 15:54:50 437.375
ITUPSAT 1 28 Jul 16:00:07 16:04:55 83° 287° (WNW) 16:09:41 437.325
MOZHAYETS 4 28 Jul 16:05:37 16:09:00 20° 91° (E) 16:12:20
